This is the latest recevied weather packets stored in our database for station/object KO6HRZ. If no packets are shown the sender has not sent any weather packets the latest 10 day(s).
| Time | Temp. | Humidity | Pressure | Rain* | Wind** | Luminosity | Snow |
|---|---|---|---|---|---|---|---|
| 1777127406 | 10.56° C | 91% | 1011.1 hPa | 0 mm | - | 77 W/m² | - |
| 1777126803 | 10° C | 91% | 1011.2 hPa | 0 mm | - | 57 W/m² | - |
| 1777126201 | 10° C | 92% | 1011.2 hPa | 0 mm | - | 51 W/m² | - |
| 1777125599 | 10° C | 92% | 1011.2 hPa | 0 mm | - | 31 W/m² | - |
| 1777124995 | 9.44° C | 93% | 1011.2 hPa | 0 mm | - | 25 W/m² | - |
| 1777124394 | 9.44° C | 93% | 1011 hPa | 0 mm | - | 15 W/m² | - |
| 1777123793 | 9.44° C | 93% | 1011 hPa | 0 mm | - | 9 W/m² | - |
| 1777123190 | 9.44° C | 93% | 1010.9 hPa | 0 mm | - | 3 W/m² | - |
| 1777122590 | 9.44° C | 93% | 1010.8 hPa | 0 mm | - | 1 W/m² | - |
| 1777121987 | 9.44° C | 93% | 1011.1 hPa | 0 mm | - | 0 W/m² | - |
| 1777121386 | 9.44° C | 93% | 1011 hPa | 0 mm | - | 0 W/m² | - |
| 1777120785 | 9.44° C | 93% | 1010.9 hPa | 0 mm | - | 0 W/m² | - |
| 1777120181 | 9.44° C | 93% | 1011 hPa | 0 mm | - | 0 W/m² | - |
| 1777119579 | 9.44° C | 93% | 1011 hPa | 0 mm | - | 0 W/m² | - |
| 1777118975 | 9.44° C | 93% | 1010.9 hPa | 0 mm | - | 0 W/m² | - |
| 1777118372 | 9.44° C | 93% | 1010.9 hPa | 0 mm | - | 0 W/m² | - |
| 1777117771 | 10° C | 92% | 1010.9 hPa | 0 mm | - | 0 W/m² | - |
| 1777117171 | 10° C | 92% | 1010.9 hPa | 0 mm | - | 0 W/m² | - |
| 1777116568 | 10° C | 93% | 1011 hPa | 0 mm | - | 0 W/m² | - |
| 1777115966 | 9.44° C | 93% | 1011 hPa | 0 mm | - | 0 W/m² | - |
| 1777115363 | 9.44° C | 93% | 1011 hPa | 0 mm | - | 0 W/m² | - |
| 1777114762 | 9.44° C | 92% | 1011.2 hPa | 0 mm | - | 0 W/m² | - |
| 1777114159 | 10° C | 92% | 1011.2 hPa | 0 mm | - | 0 W/m² | - |
| 1777113554 | 10° C | 92% | 1010.9 hPa | 0 mm | - | 0 W/m² | - |
| 1777112949 | 10° C | 92% | 1010.9 hPa | 0 mm | - | 0 W/m² | - |
* Rain latest hour (hover to see other rain measurements)
** Current wind speed in m/s (hover to see current wind gust speed)